ZSJAR FAPM-FAWB

Flight info

Callsign ZSJAR
Flight time N/A
Altitude 26000
Route WRV DCT STV DCT CZV
Aircraft PC12/L-SDFGRWY/S

Departure

Time N/A
Airport Pietermaritzburg Airport (FAPM)

Arrival

Time 2026-05-01 15:09
Airport Wonderboom Airport (FAWB)
Time Latitude Longitude Altitude Speed Heading
2026-05-01 15:09 -25.65504 28.21344 4100 ft 0 kts 230°
2026-05-01 15:10 -25.65505 28.21343 4100 ft 2 kts 230°
2026-05-01 15:10 -25.65595 28.21463 4100 ft 15 kts 23°
2026-05-01 15:10 -25.65503 28.21504 4100 ft 14 kts 47°
2026-05-01 15:11 -25.65453 28.21614 4100 ft 21 kts 72°
2026-05-01 15:11 -25.65448 28.22006 4100 ft 25 kts 93°
2026-05-01 15:11 -25.65453 28.22124 4100 ft 22 kts 92°
2026-05-01 15:12 -25.65460 28.22316 4101 ft 16 kts 91°
2026-05-01 15:12 -25.65418 28.22450 4100 ft 8 kts 40°
2026-05-01 15:12 -25.65375 28.22495 4099 ft 8 kts 33°
2026-05-01 15:13 -25.65356 28.22472 4100 ft 7 kts 273°
2026-05-01 15:14 -25.65330 28.21673 4199 ft 87 kts 272°
2026-05-01 15:14 -25.65376 28.20954 4454 ft 102 kts 266°
2026-05-01 15:14 -25.65820 28.19279 5135 ft 123 kts 248°
2026-05-01 15:15 -25.67235 28.18212 5754 ft 147 kts 178°
2026-05-01 15:15 -25.68896 28.19650 6397 ft 160 kts 134°
2026-05-01 15:16 -25.70347 28.21355 6997 ft 134 kts 140°
2026-05-01 15:16 -25.71714 28.22786 7609 ft 135 kts 143°
2026-05-01 15:17 -25.73117 28.24171 8236 ft 134 kts 147°
2026-05-01 15:18 -25.75126 28.26141 9266 ft 120 kts 148°
2026-05-01 15:18 -25.75551 28.26565 9492 ft 115 kts 148°